Location: Rehoboth Beach
(38.7438°N, 75.1341°W)
Time: 23:48:58
(UTC-04:00)

Hubble Space Telescope - Visible Passes

Search period start: 03 September 2015 00:00
Search period end: 13 September 2015 00:00
Orbit: 541 x 545 km, 28.5° (Epoch: 02 September)

Date Brightness Start Highest point End Pass type
(mag) Time Alt. Az. Time Alt. Az. Time Alt. Az.
04 Sep 3.0 05:54:44 10° SSW 05:57:08 15° SSE 05:59:34 10° SE visible
05 Sep 2.8 05:45:24 10° SSW 05:48:04 17° S 05:50:46 10° SE visible
06 Sep 2.7 05:36:26 11° SW 05:39:01 18° S 05:41:53 10° SE visible
07 Sep 2.6 05:28:01 14° SSW 05:29:58 19° S 05:32:56 10° SE visible
08 Sep 2.5 05:19:37 17° SSW 05:20:54 20° S 05:23:56 10° SE visible
09 Sep 2.4 05:11:14 19° SSW 05:11:52 20° S 05:14:53 10° SE visible
10 Sep 2.5 05:02:53 19° S 05:02:53 19° S 05:05:47 10° SE visible
11 Sep 2.7 04:54:35 17° S 04:54:35 17° S 04:56:37 10° SE visible
12 Sep 3.0 04:46:21 14° SSE 04:46:21 14° SSE 04:47:23 10° SSE visible
